Regional Weather Roundup
Issued by NWS

Home | Current Version | Previous Version | Graphics & Text | Print | Product List | Glossary On
Versions: 1 2 3 4 5 6 7 8 9 10 11 12 13 14 15 16 17 18 19 20 21 22 23 24 25 26 27 28 29 30 31 32 33 34 35 36 37 38 39 40 41 42 43 44 45 46 47 48 49 50
000
ASUS43 KDTX 122001
RWRMI
MICHIGAN HOURLY REGIONAL WEATHER ROUNDUP
NATIONAL WEATHER SERVICE DETROIT/PONTIAC MI
400 PM EDT SAT JUL 12 2014

NOTE: "FAIR" INDICATES FEW OR NO CLOUDS BELOW 12,000 FEET WITH NO
SIGNIFICANT WEATHER AND/OR OBSTRUCTION TO VISIBILITY.

MIZ047>049-052>055-059>063-066>070-074>076-081>083-122100-
SOUTHEAST LOWER MICHIGAN

CITY           SKY/WX    TMP DP  RH WIND       PRES   REMARKS
ADRIAN         PTSUNNY   84  66  54 SW13      30.05F
ALMA           CLOUDY    79  64  60 S5        30.02F
ANN ARBOR      MOSUNNY   84  63  49 S10       30.05F
BAD AXE        CLOUDY    81  60  48 S12       30.05F
CARO           CLOUDY    83  62  49 SW6       30.04S
DETROIT CITY   PTSUNNY   85  61  44 S14       30.05F
DETROIT        PTSUNNY   84  61  45 S12       30.06F
FLINT          CLOUDY    83  63  50 S7G16     30.04F
GROSSE ILE     PTSUNNY   81  70  69 SE10      30.05F
HILLSDALE      CLOUDY    79  73  82 CALM      30.05F
HOWELL         PTSUNNY   80  64  58 S9        30.04F

CITY           SKY/WX    TMP DP  RH WIND       PRES   REMARKS
JACKSON        CLOUDY    81  67  62 S9        30.04F
LAMBERTVILLE   PTSUNNY   86  63  45 S9        30.06F
LANSING        CLOUDY    81  66  60 S13       30.02F
LAPEER         MOCLDY    82  60  47 SW8       30.05F
MASON          CLOUDY    80  68  65 S6        30.03F
MONROE         PTSUNNY   88  61  40 SW12      30.04F
PONTIAC        CLOUDY    82  60  47 SW9G17    30.05F
PORT HOPE        N/A     81  57  43 VRB6      30.02F
PORT HURON     PTSUNNY   82  63  51 S12G17    30.06F
TRI CITIES     CLOUDY    83  65  54 S8        30.03F
TROY           PTSUNNY   84  58  40 S8        30.06F
SAGINAW HB     CLOUDY    81  63  54 S10       30.02F
$$
MIZ043>046-050>051-056>058-064>065-071>073-077>080-122100-
SOUTHWEST LOWER MICHIGAN

CITY           SKY/WX    TMP DP  RH WIND       PRES   REMARKS
BATTLE CREEK   CLOUDY    79  69  71 S10       30.01F
BENTON HARBOR  CLOUDY    74  69  85 S5        30.02R
BIG RAPIDS     CLOUDY    74  66  77 S8        30.00F
COLDWATER      CLOUDY    78  69  73 SW8       30.02F
FREMONT        CLOUDY    75  69  81 S5        30.00S
HOLLAND        CLOUDY    76  71  85 SW14      30.02R
GRAND RAPIDS   CLOUDY    79  70  74 SW7       30.00F
IONIA          FAIR      81  67  63 S7        30.00F
KALAMAZOO      CLOUDY    77  68  73 S8        30.00F
LUDINGTON      CLOUDY    74  70  86 SW12      29.99R
MARSHALL       CLOUDY    78  69  72 S9        30.02F
MOUNT PLEASANT CLOUDY    77  66  69 CALM      30.02F
MUSKEGON       CLOUDY    73  67  81 SW12      30.01R
SOUTH HAVEN    CLOUDY    74  71  88 SW3       30.02S
$$
MIZ016>042-122100-
NORTHERN LOWER MICHIGAN

CITY           SKY/WX    TMP DP  RH WIND       PRES   REMARKS
ALPENA         CLOUDY    81  64  56 SW12      29.99F
BEAVER ISLAND  CLOUDY    68  62  79 SW15G21   29.97F
BELLAIRE       CLOUDY    77  65  65 CALM      29.97F
CADILLAC       CLOUDY    75  66  75 S7        30.02F
CHARLEVOIX     CLOUDY    76  65  67 W6        30.00F
FRANKFORT      CLOUDY    77  65  66 CALM      29.95F
GAYLORD        CLOUDY    77  63  61 SW14      30.01F
GRAYLING       CLOUDY    76  63  63 S5        30.01F
HARBOR SPRINGS CLOUDY    75  66  72 CALM      29.97F
HOUGHTON LAKE  CLOUDY    77  64  64 S8        30.03F
MANISTEE       CLOUDY    75  66  73 S7        29.97F
OSCODA         CLOUDY    81  59  47 S12       30.01F
PELLSTON       CLOUDY    78  65  63 SW7       29.98F
ROGERS CITY    LGT RAIN  75  70  83 SW6       30.00S
TRAVERSE CITY  CLOUDY    80  65  59 VRB5      29.96F
$$
MIZ007>008-015-122100-
EASTERN UPPER MICHIGAN

CITY           SKY/WX    TMP DP  RH WIND       PRES   REMARKS
KINROSS        CLOUDY    75  66  73 SW8       29.97F
MACKINAC ISLAN CLOUDY    69  61  76 W10G17    29.98F
NEWBERRY       CLOUDY    72  64  75 S12       29.95F
S. S. MARIE    CLOUDY    76  64  66 SW15G22   29.95F
$$
MIZ004>006-011>014-085-122100-
CENTRAL UPPER MICHIGAN

CITY           SKY/WX    TMP DP  RH WIND       PRES   REMARKS
MANISTIQUE     CLOUDY    64  59  84 SW15G21   29.95F
ESCANABA       CLOUDY    73  63  68 S10G16    29.94F
MENOMINEE      CLOUDY    79  68  69 S9        29.92F
SAWYER-GWINN   SUNNY     73  66  78 NE9       29.94F
$$
MIZ001>003-009>011-084-122100-
WESTERN UPPER MICHIGAN

CITY           SKY/WX    TMP DP  RH WIND       PRES   REMARKS
IRON MOUNTAIN  CLOUDY    80  68  66 S12       29.93F
HOUGHTON       CLOUDY    72  56  57 W5        29.94S
COPPER HARBOR    N/A     60  54  80 N3        29.94F
IRONWOOD       CLOUDY    72  57  60 N6        29.93F
$$

ABBREVIATIONS USED IN REMARKS
   TC - TEMPERATURE IN CELSIUS
  WCI - WIND CHILL INDEX
   HX - HEAT INDEX
  VSB - VISIBILITY




USA.gov is the U.S. government's official web portal to all federal, state and local government web resources and services.